OneWeb SL0411

operational
NORAD ID: 51623 Int'l Des: 2022-012 Owner: ONEWEBN Country: UK Constellation: oneweb
LEOCIRCULARPOLARONEWEB_TYPE

OneWeb SL0411について

説明を読み込み中...

リアルタイム位置

3D地球を読み込み中...

次回通過

高度履歴

Altitude vs Time

uPlot chart will show altitude changes over time

軌道要素

1 51623U 22012B 25353.19108820 -.00000148 00000-0 -46091-3 0 9999
2 51623 87.8809 72.1496 0001244 92.5994 267.5276 13.10375481185717
Epoch: Dec 19, 2025 • Age: 11 hours

現在のステータス

高度 1225.4 km
速度 7.24 km/s
衛星直下点 32.49°N, 108.71°E
打ち上げ日 Feb 10, 2022
運用期間 3.8 years
タイプ internet

技術仕様

分類 Payload
質量 148.00 kg
乾燥質量 140.00 kg
総質量 148.00 kg
長さ 1.30 m
直径 1.00 m
スパン 5.00 m
形状 Trapezoid+2 pan
製造者 ONEWUS
バスタイプ ARROW
フェーズステータス In Orbit
所有者/国 ONEWEBN/UK

大規模コンステレーション

Loading constellations...